Weather History for Taunton, MA

Change the Weather History Date:

Friday, July 26, 2013

  Actual Average Record
Temperature  
Mean Temperature 66 °F -  
Max Temperature 70 °F 80 °F 96 °F (2005)
Min Temperature 63 °F 59 °F 43 °F (2002)
Cooling Degree Days 2    
Growing Degree Days 16 (Base 50)    
Moisture  
Dew Point 63 °F    
Average Humidity 92    
Maximum Humidity 93    
Minimum Humidity 84    
Precipitation  
Precipitation 0.58 in - - ()
Sea Level Pressure  
Sea Level Pressure 29.96 in    
Wind  
Wind Speed 6 mph (NW)    
Max Wind Speed 12 mph    
Max Gust Speed 18 mph    
Visibility 6 miles    
Events Rain    
Averages and records for this station are not official NWS values.
T = Trace of Precipitation, MM = Missing Value Source: NWS Daily Summary

Daily Weather History Graph

Daily Weather History Graph

Search for Another Location

Airport:

Trip Planner

Search our weather history database for the weather conditions in past years. The results will help you decide how hot, cold, wet, or windy it might be!

Date:

Astronomy

Jul. 26, 2013 Rise Set
Actual Time 5:32 AM EDT 8:08 PM EDT
Civil Twilight 5:00 AM EDT 8:40 PM EDT
Nautical Twilight 4:19 AM EDT 9:20 PM EDT
Astronomical Twilight 3:34 AM EDT 10:05 PM EDT
Moon 10:15 PM EDT (7/26) 10:10 AM EDT (7/26)
Length of Visible Light 15h 40m
Length of Day
14h 36m
Waning Gibbous, 80% of the Moon is Illuminated
Jul 26
Waning Gibbous
Jul 29
Last Quarter
Aug 6
New
Aug 14
First Quarter
Aug 20
Full

Hourly Weather History & Observations

Time (EDT) Temp. Dew Point Humidity Pressure Visibility Wind Dir Wind Speed Gust Speed Precip Events Conditions
12:52 AM 63.0 °F 61.0 °F 93% 30.02 in 10.0 mi Calm Calm - 0.00 in   Overcast
1:21 AM 63.0 °F 61.0 °F 93% 30.01 in 10.0 mi Variable 4.6 mph - 0.00 in Rain Light Rain
1:29 AM 63.0 °F 61.0 °F 93% 30.01 in 9.0 mi North 5.8 mph - 0.00 in Rain Light Rain
1:52 AM 63.0 °F 61.0 °F 93% 30.00 in 10.0 mi North 5.8 mph - 0.01 in Rain Light Rain
2:52 AM 63.0 °F 61.0 °F 93% 29.98 in 6.0 mi North 5.8 mph - 0.02 in Rain Light Rain
3:52 AM 63.0 °F 61.0 °F 93% 29.97 in 6.0 mi North 6.9 mph - 0.02 in Rain Light Rain
4:52 AM 63.0 °F 61.0 °F 93% 29.96 in 4.0 mi North 5.8 mph - 0.07 in Rain Light Rain
5:52 AM 63.0 °F 61.0 °F 93% 29.95 in 4.0 mi North 8.1 mph - 0.03 in Rain Light Rain
5:59 AM 63.0 °F 61.0 °F 93% 29.95 in 6.0 mi Variable 5.8 mph - 0.00 in Rain Light Rain
6:30 AM 63.0 °F 61.0 °F 93% 29.96 in 2.0 mi North 8.1 mph - 0.03 in Rain Rain
6:40 AM 63.0 °F 61.0 °F 93% 29.95 in 3.0 mi Variable 5.8 mph - 0.03 in Rain Light Rain
6:52 AM 63.0 °F 61.0 °F 93% 29.95 in 4.0 mi North 6.9 mph - 0.04 in Rain Light Rain
7:52 AM 64.0 °F 62.1 °F 93% 29.94 in 7.0 mi NNW 6.9 mph - 0.03 in Rain Light Rain
8:52 AM 64.0 °F 62.1 °F 93% 29.94 in 3.0 mi North 9.2 mph - 0.02 in Rain Light Rain
9:52 AM 64.0 °F 62.1 °F 93% 29.94 in 7.0 mi North 6.9 mph - 0.00 in   Overcast
10:03 AM 64.0 °F 62.1 °F 93% 29.94 in 1.8 mi NNW 5.8 mph - 0.01 in Rain Light Rain
10:10 AM 64.0 °F 62.1 °F 93% 29.94 in 2.5 mi NNW 8.1 mph - 0.01 in Rain Light Rain
10:42 AM 64.0 °F 62.1 °F 93% 29.93 in 3.0 mi NNW 9.2 mph - 0.03 in Rain Light Rain
10:52 AM 64.0 °F 62.1 °F 93% 29.94 in 3.0 mi NNW 10.4 mph - 0.03 in Rain Light Rain
11:33 AM 64.9 °F 63.0 °F 93% 29.93 in 2.0 mi Variable 6.9 mph 17.3 mph 0.01 in Rain Light Rain
11:52 AM 64.9 °F 63.0 °F 93% 29.94 in 3.0 mi NNW 8.1 mph - 0.01 in Rain Light Rain
12:52 PM 66.0 °F 64.0 °F 93% 29.92 in 4.0 mi NNW 10.4 mph - 0.00 in Rain Light Rain
1:52 PM 68.0 °F 64.0 °F 87% 29.92 in 10.0 mi NNW 11.5 mph - 0.00 in   Overcast
2:17 PM 68.0 °F 64.0 °F 87% 29.92 in 10.0 mi NW 6.9 mph - N/A   Overcast
2:52 PM 68.0 °F 64.9 °F 90% 29.93 in 9.0 mi NW 10.4 mph - 0.00 in Rain Light Rain
3:31 PM 70.0 °F 66.0 °F 87% 29.93 in 10.0 mi NW 8.1 mph - 0.01 in   Overcast
3:52 PM 70.0 °F 64.9 °F 84% 29.93 in 9.0 mi NW 6.9 mph 18.4 mph 0.01 in   Overcast
4:22 PM 70.0 °F 66.0 °F 87% 29.94 in 10.0 mi WNW 6.9 mph - 0.00 in   Overcast
4:52 PM 70.0 °F 64.9 °F 84% 29.94 in 10.0 mi WNW 4.6 mph - 0.00 in   Overcast
5:52 PM 69.1 °F 66.0 °F 90% 29.96 in 4.0 mi West 3.5 mph - 0.04 in Rain Light Rain
6:23 PM 69.1 °F 66.9 °F 93% 29.96 in 1.8 mi West 5.8 mph - 0.07 in Rain Heavy Rain
6:41 PM 69.1 °F 66.9 °F 93% 29.97 in 2.0 mi West 5.8 mph - 0.13 in Rain Rain
6:52 PM 68.0 °F 66.0 °F 93% 29.97 in 1.5 mi West 4.6 mph - 0.17 in Rain Heavy Rain
7:03 PM 68.0 °F 66.0 °F 93% 29.97 in 2.0 mi WSW 3.5 mph - 0.03 in Rain Heavy Rain
7:21 PM 68.0 °F 66.0 °F 93% 29.97 in 5.0 mi Calm Calm - 0.06 in Rain Light Rain
7:52 PM 66.9 °F 64.9 °F 93% 29.98 in 10.0 mi SW 3.5 mph - 0.06 in   Scattered Clouds
8:52 PM 66.9 °F 64.9 °F 93% 30.00 in 8.0 mi WSW 4.6 mph - 0.01 in Rain Light Rain
9:52 PM 66.0 °F 64.0 °F 93% 30.01 in 10.0 mi SW 4.6 mph - 0.01 in   Scattered Clouds
10:52 PM 64.9 °F 62.1 °F 90% 30.01 in 10.0 mi SW 5.8 mph - 0.00 in   Clear
11:52 PM 64.9 °F 62.1 °F 90% 30.02 in 10.0 mi SW 5.8 mph - N/A   Clear